Location: Helsinki
(60.1699°N, 24.9384°E)
Time: 15:31:07
(UTC+02:00)

Tiros 1 - Pass Details

Date: 04 October 2022
Orbit: 629 x 662 km, 48.4° (Epoch: 07 December)

Event Time Altitude Azimuth Distance (km) Brightness Sun altitude
Rises 03:18:03 0° 245° (WSW) 2,989 - -29.0°
Reaches altitude 10° 03:20:55 10° 229° (SW) 2,073 - -28.7°
Maximum altitude 03:24:21 20° 183° (S) 1,514 - -28.5°
Drops below altitude 10° 03:27:47 10° 136° (SE) 2,061 - -28.2°
Exits shadow 03:29:15 - 126° (SE) 2,509 10.2 -28.1°
Sets 03:30:37 0° 120° (ESE) 2,965 10.7 -28.0°
